(60484) = 2000 DM55

Discovered at Socorro on 2000-02-29 by LINEAR.

Orbit

Orbit type: Main Belt

Note: WebGL enabled browser required.

epoch2023-09-13.0
epoch JD2460200.5
perihelion date2021-08-01.51721
perihelion JD2459428.01721
argument of perihelion (°)358.34671
ascending node (°)136.73870
inclination (°)2.78270
eccentricity0.1115863
perihelion distance (AU)2.0878743
Tisserand w.r.t. Jupiter3.5
ΔV w.r.t. Earth (km/sec)9.0
semimajor axis (AU)2.3501150
mean anomaly (°)211.32894
mean daily motion (°/day)0.27357110
aphelion distance (AU)2.612
period (years)3.6
P-vector [x]-0.70818337
P-vector [y]0.64832442
P-vector [z]0.27955638
Q-vector [x]-0.70524417
Q-vector [y]-0.66823993
Q-vector [z]-0.23682496
absolute magnitude16.26
phase slope0.15
uncertainty0
referenceMPEC 2024-A55
observations used1020
oppositions18
arc length (days)11277
first opposition used1993
last opposition used2023
residual rms (arc-secs)0.73
perturbers coarse indicatorM-v
perturbers precise indicator003Ek
first observation date used1993-01-22.0
last observation date used2023-12-08.0
computer nameMPCLINUX
JD of orbit computation2456731.538359
perihelion JD uncertainty (days)8.2801E-05
argument of perihelion uncertainty (°)9.0011E-05
ascending node uncertainty (°)8.6920E-05
inclination uncertainty (°)4.6416E-06
eccentricity uncertainty 4.0730E-08
perihelion distance uncertainty (AU)9.7957E-08
Minimum Orbit Intersection Distances (in AU)
for orbit epoch: 2460200.5, reference: E2024-A55
Mercury1.7419
Venus1.37088
Earth1.10043
Mars0.43076
Jupiter2.40655
Saturn6.84575
Uranus16.3153
Neptune27.3632

Observations

1036 total observations over interval: 1993 01 22.50003 – 2023 12 08.095870
These data are available for download (format description).

Date (UT) J2000 RA J2000 Dec Magn Location Ref
1993 01 22.50003 13 21 43.17 -06 20 01.3 20.1 V 691 – Steward Observatory, Kitt Peak-Spacewatch MPS 77882
1993 01 22.50973 13 21 43.71 -06 20 03.1 20.0 V 691 – Steward Observatory, Kitt Peak-Spacewatch MPS 77882
1993 01 22.51889 13 21 44.21 -06 20 05.2 20.9 V 691 – Steward Observatory, Kitt Peak-Spacewatch MPS 77882
2000 02 11.37831 11 10 20.75 +07 00 39.6 18.6   704 – Lincoln Laboratory ETS, New Mexico MPS 11231
2000 02 11.39253 11 10 20.22 +07 00 43.2 18.6   704 – Lincoln Laboratory ETS, New Mexico MPS 11231
2000 02 11.40675 11 10 19.64 +07 00 47.7 18.7   704 – Lincoln Laboratory ETS, New Mexico MPS 11231
2000 02 11.42099 11 10 19.08 +07 00 53.6 19.0   704 – Lincoln Laboratory ETS, New Mexico MPS 11231
2000 02 11.43540 11 10 18.49 +07 00 58.8 19.2   704 – Lincoln Laboratory ETS, New Mexico MPS 11231
2000 02 29.30883 10 56 01.49 +09 07 06.1 18.0   704 – Lincoln Laboratory ETS, New Mexico MPS 11231
2000 02 29.33562 10 56 00.00 +09 07 17.9 18.1   704 – Lincoln Laboratory ETS, New Mexico MPS 11231
2000 02 29.34901 10 55 59.18 +09 07 24.3 17.8   704 – Lincoln Laboratory ETS, New Mexico MPS 11231
2000 03 03.26540 10 53 20.77 +09 28 49.1 16.5   704 – Lincoln Laboratory ETS, New Mexico MPS 11231
2000 03 03.27862 10 53 20.03 +09 28 54.9 17.1   704 – Lincoln Laboratory ETS, New Mexico MPS 11231
2000 03 03.29185 10 53 19.30 +09 29 00.9 16.8   704 – Lincoln Laboratory ETS, New Mexico MPS 11231
2000 03 03.30506 10 53 18.53 +09 29 06.6 17.0   704 – Lincoln Laboratory ETS, New Mexico MPS 11231
2000 03 03.31828 10 53 17.79 +09 29 12.5 16.8   704 – Lincoln Laboratory ETS, New Mexico MPS 11231
2000 03 03.61332 10 53 01.31 +09 31 20.5 18.1   608 – Haleakala-AMOS MPS 11231
2000 03 03.62407 10 53 00.71 +09 31 25.0 18.4   608 – Haleakala-AMOS MPS 11231
2000 03 03.63477 10 53 00.10 +09 31 28.8 18.8   608 – Haleakala-AMOS MPS 11231
2000 03 04.23682 10 52 28.07 +09 35 51.7 17.7   704 – Lincoln Laboratory ETS, New Mexico MPS 11231
2000 03 04.25028 10 52 27.29 +09 35 56.5 18.6   704 – Lincoln Laboratory ETS, New Mexico MPS 11231
2000 03 04.26374 10 52 26.53 +09 36 03.8 18.6   704 – Lincoln Laboratory ETS, New Mexico MPS 11231
2000 03 04.27719 10 52 25.76 +09 36 08.9 18.4   704 – Lincoln Laboratory ETS, New Mexico MPS 11231
2000 03 04.29086 10 52 24.95 +09 36 15.1 17.7   704 – Lincoln Laboratory ETS, New Mexico MPS 11231
2000 03 05.16701 10 51 37.80 +09 42 32.5 18.2   704 – Lincoln Laboratory ETS, New Mexico MPS 11231
2000 03 05.18024 10 51 37.04 +09 42 38.0 18.5   704 – Lincoln Laboratory ETS, New Mexico MPS 11231
2000 03 05.19349 10 51 36.32 +09 42 43.9 18.2   704 – Lincoln Laboratory ETS, New Mexico MPS 11231
2000 03 05.20674 10 51 35.51 +09 42 49.4 18.4   704 – Lincoln Laboratory ETS, New Mexico MPS 11231
2000 03 05.21997 10 51 34.82 +09 42 55.4 18.6   704 – Lincoln Laboratory ETS, New Mexico MPS 11231
2000 03 05.47298 10 51 20.79 +09 44 44.8 17.9   608 – Haleakala-AMOS MPS 11231
2000 03 05.48381 10 51 20.20 +09 44 49.1 17.8   608 – Haleakala-AMOS MPS 11231
2000 03 05.49463 10 51 19.56 +09 44 54.0 18.0   608 – Haleakala-AMOS MPS 11231
2000 03 08.45362 10 48 41.55 +10 05 34.0 18.0   608 – Haleakala-AMOS MPS 12270
2000 03 08.46459 10 48 40.94 +10 05 38.7 18.0   608 – Haleakala-AMOS MPS 12270
2000 03 08.47544 10 48 40.33 +10 05 43.2 18.0   608 – Haleakala-AMOS MPS 12271
2000 03 11.21369 10 46 18.79 +10 23 57.5 18.2 R 699 – Lowell Observatory-LONEOS MPS 11231
2000 03 11.23732 10 46 17.52 +10 24 07.1   699 – Lowell Observatory-LONEOS MPS 11231
2000 03 11.23991 10 46 17.31 +10 24 07.9 18.9   704 – Lincoln Laboratory ETS, New Mexico MPS 11231
2000 03 11.25427 10 46 16.54 +10 24 13.8 18.5   704 – Lincoln Laboratory ETS, New Mexico MPS 11231
2000 03 11.26088 10 46 16.24 +10 24 16.1   699 – Lowell Observatory-LONEOS MPS 11231
2000 03 11.26686 10 46 15.86 +10 24 18.5 18.6   704 – Lincoln Laboratory ETS, New Mexico MPS 11231
2000 03 11.28001 10 46 15.16 +10 24 23.5 18.4   704 – Lincoln Laboratory ETS, New Mexico MPS 11231
2000 03 11.28453 10 46 14.97 +10 24 25.3   699 – Lowell Observatory-LONEOS MPS 11231
2000 03 11.29277 10 46 14.49 +10 24 28.4 18.9   704 – Lincoln Laboratory ETS, New Mexico MPS 11231
2000 04 03.19764 10 32 30.38 +12 06 10.9 19.2 R 699 – Lowell Observatory-LONEOS MPS 12271
2000 04 03.21209 10 32 30.13 +12 06 13.1   699 – Lowell Observatory-LONEOS MPS 12271
2000 04 03.22649 10 32 29.81 +12 06 15.0   699 – Lowell Observatory-LONEOS MPS 12271
2000 04 03.23058 10 32 29.70 +12 06 15.3 18.8   704 – Lincoln Laboratory ETS, New Mexico MPS 12271
2000 04 03.24087 10 32 29.54 +12 06 16.2   699 – Lowell Observatory-LONEOS MPS 12271
2000 04 03.24500 10 32 29.46 +12 06 17.6 19.3   704 – Lincoln Laboratory ETS, New Mexico MPS 12271
2000 04 03.26010 10 32 29.16 +12 06 19.8 18.8   704 – Lincoln Laboratory ETS, New Mexico MPS 12271
2000 04 03.27450 10 32 28.90 +12 06 21.6 19.0   704 – Lincoln Laboratory ETS, New Mexico MPS 12271
2000 04 03.28888 10 32 28.61 +12 06 23.6 19.5   704 – Lincoln Laboratory ETS, New Mexico MPS 12271
2001 06 26.34891 20 24 11.44 -17 30 42.4 20.6   644 – Palomar Mountain/NEAT MPS 32781
2001 06 26.35962 20 24 10.97 -17 30 44.5 20.3   644 – Palomar Mountain/NEAT MPS 32781
2001 06 26.37017 20 24 10.53 -17 30 46.3 20.2   644 – Palomar Mountain/NEAT MPS 32781
2001 07 21.38722 20 01 43.52 -19 02 28.2 21.0   608 – Haleakala-AMOS MPS 32781
2001 07 21.39808 20 01 42.79 -19 02 31.3 20.4   608 – Haleakala-AMOS MPS 32781
2001 07 21.40950 20 01 42.09 -19 02 33.8 20.4   608 – Haleakala-AMOS MPS 32781
2002 11 04.59627 03 47 58.01 +15 04 32.1 20.2   608 – Haleakala-AMOS MPS 67614
2002 11 04.60673 03 47 57.38 +15 04 30.0 20.0   608 – Haleakala-AMOS MPS 67614
2002 11 04.61749 03 47 56.77 +15 04 27.5 20.5   608 – Haleakala-AMOS MPS 67614
2002 11 05.36183 03 47 16.34 +15 01 45.5 18.5 R 699 – Lowell Observatory-LONEOS MPS 65565
2002 11 05.37855 03 47 15.30 +15 01 39.3   699 – Lowell Observatory-LONEOS MPS 65565
2002 11 05.39521 03 47 14.47 +15 01 35.5   699 – Lowell Observatory-LONEOS MPS 65565
2002 11 05.41185 03 47 13.43 +15 01 32.9   699 – Lowell Observatory-LONEOS MPS 65565
2002 11 07.35574 03 45 24.10 +14 54 25.1 19.7   704 – Lincoln Laboratory ETS, New Mexico MPS 65565
2002 11 07.37325 03 45 23.06 +14 54 20.6 19.4   704 – Lincoln Laboratory ETS, New Mexico MPS 65565
2002 11 07.39101 03 45 21.95 +14 54 17.2 19.5   704 – Lincoln Laboratory ETS, New Mexico MPS 65565
2002 11 07.40866 03 45 20.92 +14 54 13.6 19.3   704 – Lincoln Laboratory ETS, New Mexico MPS 65565
2002 11 07.42610 03 45 19.86 +14 54 09.4 19.1   704 – Lincoln Laboratory ETS, New Mexico MPS 65565
2002 11 11.24872 03 41 34.52 +14 40 00.3 19.0   704 – Lincoln Laboratory ETS, New Mexico MPS 65565
2002 11 11.26608 03 41 33.41 +14 39 56.3 19.4   704 – Lincoln Laboratory ETS, New Mexico MPS 65565
2002 11 11.28330 03 41 32.30 +14 39 53.0 19.3   704 – Lincoln Laboratory ETS, New Mexico MPS 65565
2002 11 11.30071 03 41 31.23 +14 39 48.9 19.3   704 – Lincoln Laboratory ETS, New Mexico MPS 65565
2002 11 11.31796 03 41 30.14 +14 39 45.1 19.4   704 – Lincoln Laboratory ETS, New Mexico MPS 65565
2002 11 13.23888 03 39 32.88 +14 32 39.5 19.2   704 – Lincoln Laboratory ETS, New Mexico MPS 65565
2002 11 13.25583 03 39 31.80 +14 32 36.3 19.1   704 – Lincoln Laboratory ETS, New Mexico MPS 65565
2002 11 13.27280 03 39 30.70 +14 32 32.2 19.3   704 – Lincoln Laboratory ETS, New Mexico MPS 65565
2002 11 13.28978 03 39 29.65 +14 32 28.4 19.3   704 – Lincoln Laboratory ETS, New Mexico MPS 65565
2002 11 13.30678 03 39 28.57 +14 32 25.2 19.2   704 – Lincoln Laboratory ETS, New Mexico MPS 65565
2002 11 23.37203 03 28 57.71 +13 57 09.6 19.1   644 – Palomar Mountain/NEAT MPS 67614
2002 11 23.37547 03 28 57.49 +13 57 08.0 18.9   644 – Palomar Mountain/NEAT MPS 67614
2002 11 23.39300 03 28 56.34 +13 57 05.3 18.9   644 – Palomar Mountain/NEAT MPS 67614
2002 11 23.39680 03 28 56.14 +13 57 03.4 18.9   644 – Palomar Mountain/NEAT MPS 67614
2002 11 23.41468 03 28 54.97 +13 57 01.0 18.9   644 – Palomar Mountain/NEAT MPS 67614
2002 11 23.41843 03 28 54.74 +13 56 59.2 19.2   644 – Palomar Mountain/NEAT MPS 67614
2002 12 02.50287 03 19 57.37 +13 31 03.4 19.7   608 – Haleakala-AMOS MPS 67614
